This is the latest recevied weather packets stored in our database for station/object AG7BI. If no packets are shown the sender has not sent any weather packets the latest 10 day(s).
| Time | Temp. | Humidity | Pressure | Rain* | Wind** | Luminosity | Snow |
|---|---|---|---|---|---|---|---|
| 1777836052 | 20° C | 45% | 1013.8 hPa | 0 mm | - | - | - |
| 1777835752 | 20.56° C | 45% | 1013.9 hPa | 0 mm | - | - | - |
| 1777835452 | 20° C | 46% | 1013.8 hPa | 0 mm | - | - | - |
| 1777835152 | 19.44° C | 50% | 1014.1 hPa | 0 mm | - | - | - |
| 1777834852 | 18.89° C | 58% | 1014.1 hPa | 0 mm | - | - | - |
| 1777834552 | 19.44° C | 53% | 1014.1 hPa | 0 mm | - | - | - |
| 1777834252 | 19.44° C | 54% | 1014.1 hPa | 0 mm | - | - | - |
| 1777833952 | 19.44° C | 54% | 1014.2 hPa | 0 mm | - | - | - |
| 1777833652 | 19.44° C | 51% | 1014.1 hPa | 0 mm | - | - | - |
| 1777833352 | 19.44° C | 53% | 1014.2 hPa | 0 mm | - | - | - |
| 1777833052 | 18.89° C | 55% | 1014.3 hPa | 0 mm | - | - | - |
| 1777832752 | 18.89° C | 57% | 1014.2 hPa | 0 mm | - | - | - |
| 1777832452 | 18.89° C | 57% | 1014.4 hPa | 0 mm | - | - | - |
| 1777832152 | 18.89° C | 56% | 1014.3 hPa | 0 mm | - | - | - |
| 1777831852 | 18.89° C | 59% | 1014.4 hPa | 0 mm | - | - | - |
| 1777831552 | 18.33° C | 60% | 1014.4 hPa | 0 mm | - | - | - |
| 1777831252 | 18.33° C | 58% | 1014.4 hPa | 0 mm | - | - | - |
| 1777830952 | 17.78° C | 57% | 1014.5 hPa | 0 mm | - | - | - |
| 1777830652 | 18.33° C | 60% | 1014.5 hPa | 0 mm | - | - | - |
| 1777830352 | 18.33° C | 58% | 1014.5 hPa | 0 mm | - | - | - |
| 1777830052 | 17.78° C | 60% | 1014.6 hPa | 0 mm | - | - | - |
| 1777829752 | 17.78° C | 59% | 1014.7 hPa | 0 mm | - | - | - |
| 1777829452 | 17.78° C | 58% | 1014.8 hPa | 0 mm | - | - | - |
| 1777829152 | 17.22° C | 61% | 1014.8 hPa | 0 mm | - | - | - |
| 1777828852 | 17.22° C | 60% | 1014.9 hPa | 0 mm | - | - | - |
* Rain latest hour (hover to see other rain measurements)
** Current wind speed in m/s (hover to see current wind gust speed)